User: anonymous   Login
Location: Moonridge Observatory
(39.2268°N, 77.7914°W)
Time: 07:02:12
(UTC-04:00)
Language:

CZ-2C R/B - Orbit

View from above orbital plane
View from above orbital plane
View from above satellite
View from above satellite

Ground track
Ground track

The orbit data is extracted from the following two-line orbital elements,

1 28480U 04046B   17149.86281075 +.00000042 +00000-0 +31961-4 0  9995
2 28480 098.1949 247.2335 0140745 278.7192 187.2417 14.25637694651624
Epoch (UTC): 29 May 2017 20:42:26
Eccentricity: 0.0140745
inclination: 98.1949°
perigee height: 705 km
apogee height: 907 km
right ascension of ascending node: 247.2335°
argument of perigee: 278.7192°
revolutions per day: 14.25637694
mean anomaly at epoch: 187.2417°
orbit number at epoch: 65162

The dashed part of the orbit path shows where the satellite is in the earth's shadow,  

DLR